"Timestamp","TZ","WindDir_Mean (deg)","WindSpd_Mean (km/h)","WindSpd_Min (km/h)","WindSpd_Max (km/h)","Temp_Mean (deg)","RH_Mean (%)","MSLP_Mean (hPa)","Rain_Acc (mm)","Rain_Intensity (mm/h)","Hail_Acc (hits/cm2)","Hail_Intensity (hits/cm2hr)","Solar_Mean (W/m2)"
2022/06/28 00:00:00.005,n,343,1.44,0.36,5.04,12.7,67.2,1024.62,0,0,0,0,0.024414
2022/06/28 00:01:00.001,n,249,5.04,1.8,5.76,12.7,67.2,1024.52,0,0,0,0,0.027008
2022/06/28 00:02:00.000,n,254,6.84,6.12,7.56,12.7,67.5,1024.52,0,0,0,0,0.026131
2022/06/28 00:03:00.000,n,309,2.88,2.16,3.96,12.7,67.2,1024.52,0,0,0,0,0.028763
2022/06/28 00:04:00.000,n,256,5.04,1.44,5.4,12.7,67,1024.52,0,0,0,0,0.023499
2022/06/28 00:05:00.007,n,288,2.52,2.52,2.88,12.7,67,1024.52,0,0,0,0,0.025291
2022/06/28 00:06:00.004,n,215,2.88,1.08,5.04,12.7,66.800004,1024.52,0,0,0,0,0.021782
2022/06/28 00:07:00.001,n,182,5.76,2.88,8.28,12.7,66.9,1024.52,0,0,0,0,0.024414
2022/06/28 00:08:00.014,n,259,2.88,1.44,3.6,12.7,66.800004,1024.52,0,0,0,0,0.022659
2022/06/28 00:09:00.011,n,294,4.32,3.24,5.4,12.7,66.9,1024.52,0,0,0,0,0.024414
2022/06/28 00:10:00.000,n,253,6.12,2.88,7.56,12.7,66.800004,1024.52,0,0,0,0,0.027885
2022/06/28 00:11:00.000,n,279,2.52,1.8,3.96,12.7,66.9,1024.52,0,0,0,0,0.021782
2022/06/28 00:12:00.002,n,230,3.24,1.44,4.68,12.7,66.800004,1024.52,0,0,0,0,0.021782
2022/06/28 00:13:00.000,n,225,2.52,1.44,3.96,12.7,66.699996,1024.52,0,0,0,0,0.021782
2022/06/28 00:14:00.000,n,258,7.56,6.84,8.28,12.7,66.6,1024.52,0,0,0,0,0.01915
2022/06/28 00:15:00.009,n,289,1.8,1.08,2.16,12.7,67.9,1024.52,0,0,0,0,0.022659
2022/06/28 00:16:00.007,n,305,3.24,2.16,3.96,12.7,67.1,1024.52,0,0,0,0,0.028725
2022/06/28 00:17:00.003,n,292,4.32,3.96,5.04,12.7,66.699996,1024.52,0,0,0,0,0.033951
2022/06/28 00:18:00.015,n,238,2.88,1.08,4.32,12.7,66.300004,1024.52,0,0,0,0,0.032234
2022/06/28 00:19:00.000,n,214,1.8,1.08,3.24,12.7,67,1024.52,0,0,0,0,0.029602
2022/06/28 00:20:00.000,n,177,2.88,1.44,5.04,12.7,66.5,1024.52,0,0,0,0,0.029602
2022/06/28 00:21:00.000,n,262,4.68,1.08,5.4,12.7,66.300004,1024.52,0,0,0,0,0.031319
2022/06/28 00:22:00.004,n,294,2.52,1.8,2.88,12.6,66.4,1024.52,0,0,0,0,0.029602
2022/06/28 00:23:00.001,n,222,2.88,0.72,4.32,12.6,66.300004,1024.52,0,0,0,0,0.028725
2022/06/28 00:24:00.000,n,252,3.24,0.36,3.96,12.6,66.199996,1024.52,0,0,0,0,0.02697
2022/06/28 00:25:00.012,n,278,4.32,3.6,4.68,12.6,66.800004,1024.52,0,0,0,0,0.026093
2022/06/28 00:26:00.009,n,173,2.52,1.08,3.6,12.6,66.300004,1024.52,0,0,0,0,0.029602
2022/06/28 00:27:00.007,n,289,1.8,0,2.88,12.6,66.9,1024.52,0,0,0,0,0.028725
2022/06/28 00:28:00.000,n,266,2.88,2.52,3.6,12.6,66.5,1024.62,0,0,0,0,0.027847
2022/06/28 00:29:00.000,n,197,2.16,2.16,2.52,12.6,66.300004,1024.62,0,0,0,0,0.025253
2022/06/28 00:30:00.000,n,183,1.8,0.72,2.88,12.6,66.199996,1024.62,0,0,0,0,0.024376
2022/06/28 00:31:00.000,n,223,0.72,0.36,5.04,12.6,66.199996,1024.62,0,0,0,0,0.02697
2022/06/28 00:32:00.008,n,130,1.08,0.72,1.08,12.5,66.4,1024.62,0,0,0,0,0.025253
2022/06/28 00:33:00.006,n,165,3.24,0.72,6.12,12.5,66.5,1024.62,0,0,0,0,0.026093
2022/06/28 00:34:00.003,n,197,2.88,2.52,3.6,12.5,66.5,1024.62,0,0,0,0,0.028725
2022/06/28 00:35:00.000,n,195,0.72,0,3.96,12.5,66.5,1024.62,0,0,0,0,0.022621
2022/06/28 00:36:00.013,n,129,2.16,1.8,2.52,12.5,66.699996,1024.62,0,0,0,0,0.023499
2022/06/28 00:37:00.000,n,102,1.08,1.08,1.44,12.5,67,1024.62,0,0,0,0,0.02697
2022/06/28 00:38:00.000,n,171,10.440002,7.56,12.96,12.5,66.9,1024.62,0,0,0,0,0.025253
2022/06/28 00:39:00.000,n,205,3.96,3.24,5.04,12.4,66.800004,1024.62,0,0,0,0,0.022621
2022/06/28 00:40:00.002,n,114,1.44,0.36,3.96,12.4,66.5,1024.52,0,0,0,0,0.023499
2022/06/28 00:41:00.000,n,151,3.96,1.8,5.04,12.4,66.800004,1024.62,0,0,0,0,0.021744
2022/06/28 00:42:00.000,n,192,2.52,1.8,4.32,12.4,66.699996,1024.52,0,0,0,0,0.025253
2022/06/28 00:43:00.010,n,200,2.52,2.16,3.24,12.4,66.6,1024.52,0,0,0,0,0.021744
2022/06/28 00:44:00.007,n,154,5.4,2.88,6.48,12.4,66.300004,1024.52,0,0,0,0,0.030479
2022/06/28 00:45:00.003,n,324,3.24,1.44,7.56,12.4,66.4,1024.42,0,0,0,0,0.032234
2022/06/28 00:46:00.000,n,187,2.88,1.44,3.96,12.4,66,1024.52,0,0,0,0,0.036583
2022/06/28 00:47:00.000,n,283,1.8,1.44,1.8,12.4,66.6,1024.52,0,0,0,0,0.031357
2022/06/28 00:48:00.000,n,225,2.16,1.8,4.32,12.4,66.1,1024.52,0,0,0,0,0.029602
2022/06/28 00:49:00.007,n,169,2.52,1.08,7.2,12.4,65.9,1024.52,0,0,0,0,0.031357
2022/06/28 00:50:00.004,n,260,2.88,1.44,3.24,12.4,66.1,1024.52,0,0,0,0,0.030479
2022/06/28 00:51:00.001,n,284,2.52,1.8,3.24,12.4,65.800004,1024.42,0,0,0,0,0.028763
2022/06/28 00:52:00.000,n,275,3.24,2.88,3.24,12.4,66.6,1024.42,0,0,0,0,0.029602
2022/06/28 00:53:00.012,n,212,1.08,0.36,4.32,12.4,66.5,1024.42,0,0,0,0,0.028763
2022/06/28 00:54:00.009,n,138,4.68,1.8,6.12,12.4,66.199996,1024.42,0,0,0,0,0.027885
2022/06/28 00:55:00.000,n,188,2.16,1.44,4.32,12.3,65.5,1024.42,0,0,0,0,0.028763
2022/06/28 00:56:00.003,n,219,3.96,1.08,5.4,12.3,65.199996,1024.42,0,0,0,0,0.025253
2022/06/28 00:57:00.000,n,168,2.52,2.16,2.88,12.3,65.199996,1024.42,0,0,0,0,0.030479
2022/06/28 00:58:00.000,n,155,4.32,2.52,6.12,12.3,65.1,1024.42,0,0,0,0,0.030479
2022/06/28 00:59:00.000,n,264,3.6,0.36,4.68,12.3,64.6,1024.42,0,0,0,0,0.024414
2022/06/28 01:00:00.008,n,212,1.44,0,2.88,12.4,64.4,1024.42,0,0,0,0,0.025253
2022/06/28 01:01:00.005,n,179,3.96,3.24,6.12,12.4,64.300004,1024.42,0,0,0,0,0.026131
2022/06/28 01:02:00.002,n,250,2.88,1.08,3.96,12.4,64,1024.42,0,0,0,0,0.027885
2022/06/28 01:03:00.015,n,285,2.88,1.8,3.96,12.4,64.1,1024.42,0,0,0,0,0.027885
2022/06/28 01:04:00.000,n,168,2.88,1.44,5.4,12.4,64.1,1024.42,0,0,0,0,0.028763
2022/06/28 01:05:00.000,n,247,6.48,3.96,9.36,12.4,63.9,1024.42,0,0,0,0,0.027885
2022/06/28 01:06:00.000,n,173,2.88,1.44,3.96,12.4,63.9,1024.42,0,0,0,0,0.023537
2022/06/28 01:07:00.005,n,182,2.88,1.8,3.6,12.4,64.1,1024.42,0,0,0,0,0.024414
2022/06/28 01:08:00.002,n,247,3.96,0.72,5.4,12.3,64.1,1024.42,0,0,0,0,0.024414
2022/06/28 01:09:00.000,n,295,2.88,2.16,3.24,12.3,63.8,1024.42,0,0,0,0,0.027885
2022/06/28 01:10:00.000,n,215,3.24,3.24,3.96,12.4,63.8,1024.42,0,0,0,0,0.024414
2022/06/28 01:11:00.012,n,189,7.56,5.76,9.36,12.4,63.6,1024.42,0,0,0,0,0.019188
2022/06/28 01:12:00.009,n,274,2.52,2.16,2.88,12.4,63.6,1024.42,0,0,0,0,0.020905
2022/06/28 01:13:00.000,n,229,4.32,3.6,5.04,12.4,63.5,1024.42,0,0,0,0,0.023537
2022/06/28 01:14:00.002,n,136,1.44,0,5.04,12.3,63.4,1024.42,0,0,0,0,0.022621
2022/06/28 01:15:00.000,n,115,1.8,1.44,1.8,12.3,63.6,1024.42,0,0,0,0,0.024414
2022/06/28 01:16:00.000,n,97,1.08,0.36,2.16,12.3,63.7,1024.42,0,0,0,0,0.021782
2022/06/28 01:17:00.000,n,131,1.08,0.72,1.44,12.3,64.1,1024.52,0,0,0,0,0.020027
2022/06/28 01:18:00.009,n,166,2.16,0.72,4.68,12.3,64.9,1024.52,0,0,0,0,0.023537
2022/06/28 01:19:00.007,n,346,5.4,3.96,5.76,12.3,65.1,1024.42,0,0,0,0,0.021782
2022/06/28 01:20:00.005,n,146,2.16,1.08,2.88,12.2,65.300004,1024.52,0,0,0,0,0.020905
2022/06/28 01:21:00.002,n,109,3.24,1.08,5.04,12.2,65.699996,1024.52,0,0,0,0,0.020027
2022/06/28 01:22:00.000,n,25,3.24,1.44,6.48,12.1,65.699996,1024.42,0,0,0,0,0.018272
2022/06/28 01:23:00.000,n,148,6.48,5.4,10.8,12,66.1,1024.42,0,0,0,0,0.025253
2022/06/28 01:24:00.004,n,156,5.76,4.32,8.64,12,66,1024.42,0,0,0,0,0.031357
2022/06/28 01:25:00.001,n,156,6.12,2.52,6.48,12,66.199996,1024.42,0,0,0,0,0.02964
2022/06/28 01:26:00.000,n,186,2.52,2.16,4.32,12,66.4,1024.42,0,0,0,0,0.02964
2022/06/28 01:27:00.000,n,168,2.88,1.8,7.92,12,66.1,1024.42,0,0,0,0,0.027885
2022/06/28 01:28:00.009,n,182,3.6,1.8,6.84,12,66.199996,1024.42,0,0,0,0,0.028725
2022/06/28 01:29:00.005,n,157,1.08,0.36,1.44,12,65.699996,1024.42,0,0,0,0,0.028725
2022/06/28 01:30:00.002,n,165,2.52,1.8,3.24,12,65.9,1024.52,0,0,0,0,0.02964
2022/06/28 01:31:00.000,n,164,2.52,1.08,3.96,12,65.800004,1024.52,0,0,0,0,0.030479
2022/06/28 01:32:00.000,n,290,1.08,0.36,5.76,12,65.800004,1024.52,0,0,0,0,0.028725
2022/06/28 01:33:00.000,n,227,1.8,1.08,3.6,12,65.800004,1024.52,0,0,0,0,0.027885
2022/06/28 01:34:00.006,n,173,3.96,2.16,6.48,12,65.800004,1024.52,0,0,0,0,0.027885
2022/06/28 01:35:00.003,n,158,3.96,1.08,5.76,12,65.699996,1024.52,0,0,0,0,0.027008
2022/06/28 01:36:00.000,n,284,2.52,1.44,3.24,12,65.800004,1024.52,0,0,0,0,0.028725
2022/06/28 01:37:00.000,n,143,2.88,1.8,4.32,12,65.6,1024.42,0,0,0,0,0.027008
2022/06/28 01:38:00.010,n,208,3.6,1.8,6.84,12,65.5,1024.42,0,0,0,0,0.027008
2022/06/28 01:39:00.007,n,190,5.04,3.6,8.28,12.1,65.1,1024.52,0,0,0,0,0.023499
2022/06/28 01:40:00.000,n,245,3.6,1.08,4.68,12.1,64.9,1024.52,0,0,0,0,0.030479
2022/06/28 01:41:00.001,n,277,2.52,1.8,3.24,12.1,64.9,1024.52,0,0,0,0,0.027008
2022/06/28 01:42:00.000,n,289,3.96,3.96,4.32,12.1,64.9,1024.52,0,0,0,0,0.026131
2022/06/28 01:43:00.000,n,198,1.8,0.72,4.32,12.1,64.9,1024.52,0,0,0,0,0.028725
2022/06/28 01:44:00.000,n,276,4.68,2.52,5.76,12.1,65,1024.52,0,0,0,0,0.026131
2022/06/28 01:45:00.008,n,273,3.6,2.88,3.96,12.1,65.199996,1024.52,0,0,0,0,0.026131
2022/06/28 01:46:00.005,n,179,5.4,3.24,8.64,12.1,65.1,1024.52,0,0,0,0,0.026131
2022/06/28 01:47:00.001,n,299,2.88,2.52,3.6,12.1,64.800004,1024.52,0,0,0,0,0.027885
2022/06/28 01:48:00.000,n,162,2.16,1.44,3.6,12.1,65,1024.52,0,0,0,0,0.024376
2022/06/28 01:49:00.000,n,221,6.48,4.68,7.92,12.1,65,1024.52,0,0,0,0,0.024376
2022/06/28 01:50:00.000,n,246,3.96,1.44,5.4,12,65.1,1024.52,0,0,0,0,0.023499
2022/06/28 01:51:00.000,n,274,1.8,0.72,4.68,12,65.300004,1024.52,0,0,0,0,0.021782
2022/06/28 01:52:00.005,n,211,5.4,4.32,6.84,12,65.1,1024.52,0,0,0,0,0.023499
2022/06/28 01:53:00.003,n,207,2.16,0.36,5.4,12,65.1,1024.52,0,0,0,0,0.023499
2022/06/28 01:54:00.000,n,122,4.32,3.6,5.04,12,65.300004,1024.52,0,0,0,0,0.01915
2022/06/28 01:55:00.000,n,199,3.96,2.88,5.04,12,64.800004,1024.52,0,0,0,0,0.020027
2022/06/28 01:56:00.009,n,240,3.24,2.52,3.96,12,65,1024.52,0,0,0,0,0.021782
2022/06/28 01:57:00.006,n,278,3.24,1.44,4.32,12,64.699996,1024.52,0,0,0,0,0.020905
2022/06/28 01:58:00.000,n,176,4.32,3.6,7.2,12,64.6,1024.52,0,0,0,0,0.021782
2022/06/28 01:59:00.000,n,171,3.24,1.08,5.76,12,64.6,1024.52,0,0,0,0,0.022659
2022/06/28 02:00:00.000,n,195,2.52,0.72,3.96,12,64.5,1024.52,0,0,0,0,0.021782
2022/06/28 02:01:00.000,n,246,4.32,3.6,5.04,12,64.4,1024.52,0,0,0,0,0.01915
2022/06/28 02:02:00.007,n,171,6.48,3.6,8.64,12,64.199996,1024.52,0,0,0,0,0.021782
2022/06/28 02:03:00.004,n,224,2.52,1.8,3.6,12,64.199996,1024.52,0,0,0,0,0.022659
2022/06/28 02:04:00.000,n,257,4.68,0.36,5.4,11.9,64.4,1024.52,0,0,0,0,0.020027
2022/06/28 02:05:00.014,n,285,3.6,1.44,6.12,11.9,64.5,1024.52,0,0,0,0,0.020027
2022/06/28 02:06:00.011,n,210,3.24,2.88,3.24,11.9,64.4,1024.52,0,0,0,0,0.020905
2022/06/28 02:07:00.000,n,121,1.08,0.36,4.32,11.9,64.300004,1024.42,0,0,0,0,0.01915
2022/06/28 02:08:00.000,n,227,2.88,0.72,4.32,11.9,64.4,1024.42,0,0,0,0,0.018311
2022/06/28 02:09:00.002,n,227,4.32,2.52,5.76,11.9,64.300004,1024.52,0,0,0,0,0.022659
2022/06/28 02:10:00.000,n,266,4.68,3.24,5.4,11.9,64.199996,1024.52,0,0,0,0,0.01915
2022/06/28 02:11:00.000,n,281,1.8,0,4.68,11.9,64.300004,1024.42,0,0,0,0,0.015678
2022/06/28 02:12:00.009,n,255,9,7.92,9.36,11.8,63.9,1024.52,0,0,0,0,0.020905
2022/06/28 02:13:00.006,n,289,1.8,0.72,2.16,11.8,63.8,1024.42,0,0,0,0,0.020027
2022/06/28 02:14:00.003,n,234,2.88,1.44,3.96,11.8,63.9,1024.42,0,0,0,0,0.01915
2022/06/28 02:15:00.001,n,274,6.48,4.68,7.2,11.8,63.5,1024.42,0,0,0,0,0.030479
2022/06/28 02:16:00.000,n,267,6.12,5.04,7.2,11.8,63.3,1024.32,0,0,0,0,0.036545
2022/06/28 02:17:00.000,n,287,7.56,6.48,8.28,11.8,62.9,1024.32,0,0,0,0,0.032196
2022/06/28 02:18:00.005,n,280,6.84,5.4,7.2,11.8,63,1024.32,0,0,0,0,0.034828
2022/06/28 02:19:00.001,n,274,3.96,3.24,4.68,11.9,62.8,1024.42,0,0,0,0,0.035706
2022/06/28 02:20:00.000,n,254,5.4,0.72,6.48,11.9,62.2,1024.42,0,0,0,0,0.033951
2022/06/28 02:21:00.000,n,182,3.96,2.52,6.84,11.9,62.4,1024.32,0,0,0,0,0.033951
2022/06/28 02:22:00.009,n,271,3.96,3.6,4.32,11.9,62.4,1024.32,0,0,0,0,0.032196
2022/06/28 02:23:00.006,n,258,3.96,0.72,4.32,11.9,62,1024.32,0,0,0,0,0.033951
2022/06/28 02:24:00.003,n,276,5.76,4.32,6.84,11.9,61.8,1024.32,0,0,0,0,0.032196
2022/06/28 02:25:00.002,n,275,6.48,5.04,6.84,11.9,61.7,1024.32,0,0,0,0,0.035706
2022/06/28 02:26:00.000,n,222,2.88,2.52,3.24,11.8,61.7,1024.42,0,0,0,0,0.032196
2022/06/28 02:27:00.000,n,160,2.52,1.8,3.24,11.8,61.8,1024.32,0,0,0,0,0.031319
2022/06/28 02:28:00.000,n,263,3.96,0.72,5.76,11.8,61.7,1024.32,0,0,0,0,0.029602
2022/06/28 02:29:00.006,n,280,3.24,2.88,3.24,11.8,61.7,1024.32,0,0,0,0,0.032196
2022/06/28 02:30:00.004,n,264,3.24,1.44,3.96,11.8,62,1024.32,0,0,0,0,0.032196
2022/06/28 02:31:00.001,n,235,3.6,1.08,5.4,11.8,61.6,1024.22,0,0,0,0,0.030479
2022/06/28 02:32:00.014,n,189,2.88,1.8,4.32,11.8,61.6,1024.22,0,0,0,0,0.031319
2022/06/28 02:33:00.011,n,174,3.24,2.88,3.6,11.8,61.6,1024.22,0,0,0,0,0.028725
2022/06/28 02:34:00.000,n,250,7.56,4.32,9.36,11.8,61.1,1024.22,0,0,0,0,0.030479
2022/06/28 02:35:00.000,n,47,2.16,0.36,5.04,11.8,61.1,1024.22,0,0,0,0,0.032196
2022/06/28 02:36:00.003,n,284,2.52,1.8,3.96,11.9,61,1024.22,0,0,0,0,0.031319
2022/06/28 02:37:00.000,n,13,6.12,2.16,7.56,11.9,61.2,1024.22,0,0,0,0,0.02697
2022/06/28 02:38:00.000,n,289,4.68,3.96,6.12,12,60.8,1024.12,0,0,0,0,0.028725
2022/06/28 02:39:00.011,n,238,2.16,0.72,3.24,12,60.2,1024.22,0,0,0,0,0.030479
2022/06/28 02:40:00.008,n,194,2.16,1.44,2.88,12,60.1,1024.12,0,0,0,0,0.033951
2022/06/28 02:41:00.005,n,245,4.68,3.6,5.4,12,60.3,1024.22,0,0,0,0,0.034828
2022/06/28 02:42:00.002,n,176,3.24,2.16,3.6,12,60.1,1024.12,0,0,0,0,0.030479
2022/06/28 02:43:00.000,n,211,3.6,2.52,3.96,12,60.1,1024.22,0,0,0,0,0.029602
2022/06/28 02:44:00.000,n,272,5.4,5.04,6.48,12,60.3,1024.22,0,0,0,0,0.027847
2022/06/28 02:45:00.000,n,266,5.76,5.04,6.84,12,60.2,1024.22,0,0,0,0,0.032196
2022/06/28 02:46:00.006,n,253,4.32,3.6,5.04,12,60.1,1024.22,0,0,0,0,0.030479
2022/06/28 02:47:00.004,n,185,3.96,3.24,5.04,12,60,1024.22,0,0,0,0,0.028725
2022/06/28 02:48:00.000,n,152,2.16,1.8,3.24,12,60,1024.22,0,0,0,0,0.030479
2022/06/28 02:49:00.013,n,292,4.32,3.24,5.04,12,60,1024.22,0,0,0,0,0.029602
2022/06/28 02:50:00.010,n,222,3.24,1.8,4.68,12,60,1024.22,0,0,0,0,0.028725
2022/06/28 02:51:00.008,n,217,3.6,2.16,4.32,12,59.9,1024.12,0,0,0,0,0.030479
2022/06/28 02:52:00.000,n,138,2.52,0.72,5.04,12,60,1024.22,0,0,0,0,0.030479
2022/06/28 02:53:00.000,n,211,1.44,0.36,5.04,12,60.1,1024.12,0,0,0,0,0.029602
2022/06/28 02:54:00.000,n,226,3.24,2.52,4.32,12,60.4,1024.12,0,0,0,0,0.028725
2022/06/28 02:55:00.000,n,284,5.4,5.04,6.12,12,60.8,1024.12,0,0,0,0,0.031319
2022/06/28 02:56:00.008,n,291,2.52,2.16,2.88,12,60.6,1024.12,0,0,0,0,0.031319
2022/06/28 02:57:00.005,n,50,1.8,1.08,3.6,12,60.9,1024.12,0,0,0,0,0.031319
2022/06/28 02:58:00.002,n,162,3.24,0.72,6.48,12,60.8,1024.12,0,0,0,0,0.031319
2022/06/28 02:59:00.000,n,200,1.08,0.72,1.8,12,60.5,1024.12,0,0,0,0,0.030479
2022/06/28 03:00:00.012,n,167,3.24,0.72,6.12,12,60.1,1024.12,0,0,0,0,0.029602
2022/06/28 03:01:00.000,n,131,2.88,2.16,2.88,12,60.4,1024.12,0,0,0,0,0.029602
2022/06/28 03:02:00.000,n,175,2.88,0.36,4.68,12,60.7,1024.12,0,0,0,0,0.029602
2022/06/28 03:03:00.004,n,97,2.52,0.36,5.04,12,60.7,1024.12,0,0,0,0,0.030479
2022/06/28 03:04:00.001,n,292,1.8,1.44,2.16,12,60.5,1024.12,0,0,0,0,0.033112
2022/06/28 03:05:00.000,n,327,2.16,0.72,3.6,12,60.3,1024.12,0,0,0,0,0.033112
2022/06/28 03:06:00.000,n,172,3.6,2.16,5.76,12,60.2,1024.12,0,0,0,0,0.033112
2022/06/28 03:07:00.009,n,232,5.4,2.16,6.84,12,60.2,1024.12,0,0,0,0,0.028725
2022/06/28 03:08:00.005,n,233,3.96,2.16,4.68,12,60.2,1024.12,0,0,0,0,0.031319
2022/06/28 03:09:00.002,n,214,3.96,2.88,4.32,12,60.3,1024.12,0,0,0,0,0.028725
2022/06/28 03:10:00.000,n,18,0.36,0.36,1.08,11.9,60.5,1024.12,0,0,0,0,0.030479
2022/06/28 03:11:00.000,n,273,4.32,1.08,6.12,11.9,60.9,1024.12,0,0,0,0,0.031319
2022/06/28 03:12:00.000,n,208,3.96,3.6,3.96,11.9,60.7,1024.22,0,0,0,0,0.030479
2022/06/28 03:13:00.000,n,328,5.76,4.68,7.2,11.9,61.2,1024.22,0,0,0,0,0.031319
2022/06/28 03:14:00.004,n,152,1.44,0.36,5.04,11.9,61.2,1024.22,0,0,0,0,0.031319
2022/06/28 03:15:00.001,n,326,5.4,2.88,7.56,11.9,60.7,1024.22,0,0,0,0,0.027847
2022/06/28 03:16:00.000,n,87,1.08,0.36,2.16,11.9,61.4,1024.22,0,0,0,0,0.028725
2022/06/28 03:17:00.012,n,325,1.44,1.08,2.16,12,61.1,1024.32,0,0,0,0,0.033112
2022/06/28 03:18:00.009,n,28,2.88,0.36,4.32,11.9,60.8,1024.32,0,0,0,0,0.030479
2022/06/28 03:19:00.000,n,175,3.6,1.8,5.04,11.9,60.4,1024.32,0,0,0,0,0.030479
2022/06/28 03:20:00.000,n,168,1.44,0.36,2.88,11.9,60.4,1024.22,0,0,0,0,0.028725
2022/06/28 03:21:00.001,n,264,1.8,1.08,2.52,11.9,60.4,1024.32,0,0,0,0,0.026131
2022/06/28 03:22:00.000,n,339,1.8,0.72,3.6,11.8,60.5,1024.32,0,0,0,0,0.033112
2022/06/28 03:23:00.000,n,80,3.24,1.08,6.12,11.8,60.7,1024.32,0,0,0,0,0.031319
2022/06/28 03:24:00.008,n,219,3.6,0.72,6.12,11.8,60.7,1024.32,0,0,0,0,0.028725
2022/06/28 03:25:00.005,n,166,3.24,1.8,4.32,11.8,61.1,1024.32,0,0,0,0,0.029602
2022/06/28 03:26:00.002,n,169,2.52,1.08,3.96,11.8,60.5,1024.32,0,0,0,0,0.029602
2022/06/28 03:27:00.016,n,155,4.68,1.8,6.48,11.8,60.5,1024.42,0,0,0,0,0.030479
2022/06/28 03:28:00.000,n,262,8.28,6.84,9.72,11.8,60.5,1024.42,0,0,0,0,0.032196
2022/06/28 03:29:00.000,n,284,1.8,0.72,3.6,11.8,60.4,1024.42,0,0,0,0,0.030479
2022/06/28 03:30:00.000,n,214,4.68,3.6,5.76,11.8,60.4,1024.42,0,0,0,0,0.027847
2022/06/28 03:31:00.004,n,177,2.16,1.44,2.88,11.7,60.5,1024.42,0,0,0,0,0.030479
2022/06/28 03:32:00.001,n,306,2.52,1.44,2.88,11.7,60.4,1024.42,0,0,0,0,0.027847
2022/06/28 03:33:00.000,n,286,5.76,5.04,6.48,11.7,60.6,1024.42,0,0,0,0,0.028725
2022/06/28 03:34:00.011,n,231,3.96,2.16,4.68,11.7,60.4,1024.42,0,0,0,0,0.030479
2022/06/28 03:35:00.008,n,174,4.32,3.6,5.76,11.7,60.4,1024.42,0,0,0,0,0.02697
2022/06/28 03:36:00.005,n,293,2.88,1.08,5.04,11.7,60.5,1024.42,0,0,0,0,0.02697
2022/06/28 03:37:00.000,n,256,6.12,5.04,7.2,11.7,60.5,1024.42,0,0,0,0,0.027847
2022/06/28 03:38:00.000,n,201,2.52,2.16,2.88,11.6,60.6,1024.42,0,0,0,0,0.030479
2022/06/28 03:39:00.000,n,149,5.04,2.88,8.64,11.6,60.3,1024.42,0,0,0,0,0.030479
2022/06/28 03:40:00.000,n,206,2.52,2.16,3.24,11.6,60.3,1024.42,0,0,0,0,0.027847
2022/06/28 03:41:00.000,n,294,3.96,3.24,4.68,11.6,60.3,1024.42,0,0,0,0,0.025253
2022/06/28 03:42:00.006,n,265,4.32,1.08,5.04,11.6,60.3,1024.42,0,0,0,0,0.028725
2022/06/28 03:43:00.003,n,281,3.6,2.88,5.04,11.6,60.3,1024.42,0,0,0,0,0.027847
2022/06/28 03:44:00.000,n,285,1.44,0.72,2.16,11.6,60.3,1024.42,0,0,0,0,0.029602
2022/06/28 03:45:00.013,n,224,2.52,2.16,2.52,11.5,60.1,1024.42,0,0,0,0,0.027847
2022/06/28 03:46:00.000,n,309,1.8,1.8,2.88,11.5,60.4,1024.42,0,0,0,0,0.028725
2022/06/28 03:47:00.000,n,303,3.6,2.88,3.96,11.5,60.3,1024.42,0,0,0,0,0.027847
2022/06/28 03:48:00.000,n,300,3.24,2.88,3.6,11.5,60.4,1024.42,0,0,0,0,0.026131
2022/06/28 03:49:00.002,n,93,1.44,0.72,4.32,11.5,60.2,1024.32,0,0,0,0,0.029602
2022/06/28 03:50:00.000,n,313,1.08,0.36,4.68,11.5,60,1024.32,0,0,0,0,0.027847
2022/06/28 03:51:00.000,n,180,5.4,3.6,7.56,11.5,60,1024.32,0,0,0,0,0.024376
2022/06/28 03:52:00.009,n,284,5.04,4.32,5.4,11.5,60.2,1024.32,0,0,0,0,0.025253
2022/06/28 03:53:00.006,n,190,2.88,1.08,5.4,11.5,60.1,1024.22,0,0,0,0,0.02697
2022/06/28 03:54:00.004,n,248,4.68,0.72,5.04,11.5,60,1024.22,0,0,0,0,0.026131
2022/06/28 03:55:00.001,n,241,2.88,1.08,3.6,11.5,60,1024.22,0,0,0,0,0.026131
2022/06/28 03:56:00.000,n,248,4.68,3.24,6.12,11.5,59.9,1024.22,0,0,0,0,0.024376
2022/06/28 03:57:00.000,n,171,2.88,2.16,3.6,11.4,59.8,1024.22,0,0,0,0,0.022621
2022/06/28 03:58:00.000,n,254,6.12,2.16,6.84,11.4,59.9,1024.22,0,0,0,0,0.021782
2022/06/28 03:59:00.006,n,260,6.12,5.04,6.84,11.4,59.7,1024.22,0,0,0,0,0.023499
2022/06/28 04:00:00.003,n,261,4.68,4.32,5.04,11.4,59.5,1024.22,0,0,0,0,0.025253
2022/06/28 04:01:00.000,n,244,7.2,6.48,8.28,11.4,59.3,1024.22,0,0,0,0,0.024376
2022/06/28 04:02:00.014,n,286,2.52,1.8,3.24,11.4,59.6,1024.22,0,0,0,0,0.024376
2022/06/28 04:03:00.011,n,28,2.16,0.72,2.88,11.4,59.5,1024.22,0,0,0,0,0.024376
2022/06/28 04:04:00.000,n,320,1.44,1.08,2.52,11.4,59.1,1024.22,0,0,0,0,0.020905
2022/06/28 04:05:00.000,n,242,5.04,3.6,6.12,11.4,58.9,1024.22,0,0,0,0,0.022621
2022/06/28 04:06:00.002,n,170,3.24,2.16,4.68,11.4,59,1024.22,0,0,0,0,0.022621
2022/06/28 04:07:00.000,n,265,2.52,0.36,3.96,11.4,58.8,1024.22,0,0,0,0,0.022621
2022/06/28 04:08:00.000,n,283,3.96,3.24,4.68,11.4,58.5,1024.22,0,0,0,0,0.01915
2022/06/28 04:09:00.010,n,242,2.88,1.8,3.6,11.4,58.6,1024.22,0,0,0,0,0.01915
2022/06/28 04:10:00.007,n,238,2.88,2.52,3.6,11.4,58.4,1024.22,0,0,0,0,0.023499
2022/06/28 04:11:00.004,n,276,5.4,4.32,5.76,11.4,58.5,1024.22,0,0,0,0,0.023499
2022/06/28 04:12:00.002,n,145,2.88,2.52,3.6,11.4,58.4,1024.12,0,0,0,0,0.021782
2022/06/28 04:13:00.000,n,126,3.96,2.16,5.04,11.4,58.5,1024.12,0,0,0,0,0.025253
2022/06/28 04:14:00.000,n,276,3.6,2.52,4.32,11.4,58.5,1024.12,0,0,0,0,0.029602
2022/06/28 04:15:00.000,n,340,0.72,0,5.04,11.4,58.3,1024.22,0,0,0,0,0.028725
2022/06/28 04:16:00.007,n,301,2.16,1.08,2.52,11.3,58.3,1024.22,0,0,0,0,0.031357
2022/06/28 04:17:00.004,n,146,0.72,0.36,3.96,11.3,58.3,1024.22,0,0,0,0,0.030479
2022/06/28 04:18:00.001,n,95,0.72,0.36,1.08,11.4,58.4,1024.22,0,0,0,0,0.031357
2022/06/28 04:19:00.000,n,305,2.52,1.8,2.88,11.4,59,1024.22,0,0,0,0,0.030479
2022/06/28 04:20:00.013,n,191,4.32,3.24,6.48,11.4,58.7,1024.22,0,0,0,0,0.030479
2022/06/28 04:21:00.010,n,160,6.48,6.12,7.2,11.4,58.6,1024.22,0,0,0,0,0.030479
2022/06/28 04:22:00.000,n,316,1.44,1.08,1.44,11.4,59,1024.22,0,0,0,0,0.029602
2022/06/28 04:23:00.003,n,163,3.24,2.52,3.96,11.4,58.8,1024.22,0,0,0,0,0.029602
2022/06/28 04:24:00.000,n,181,1.08,0.36,1.8,11.3,59,1024.22,0,0,0,0,0.030479
2022/06/28 04:25:00.000,n,161,6.84,2.52,8.28,11.3,59.4,1024.22,0,0,0,0,0.028725
2022/06/28 04:26:00.000,n,156,4.68,2.52,7.56,11.3,59.3,1024.22,0,0,0,0,0.028725
2022/06/28 04:27:00.009,n,173,3.24,1.08,7.56,11.3,59.7,1024.22,0,0,0,0,0.029602
2022/06/28 04:28:00.006,n,152,2.88,0.72,5.4,11.3,59.7,1024.22,0,0,0,0,0.027008
2022/06/28 04:29:00.003,n,159,5.4,2.88,7.2,11.3,60.1,1024.22,0,0,0,0,0.028725
2022/06/28 04:30:00.002,n,202,1.8,0.36,4.68,11.3,59.7,1024.22,0,0,0,0,0.024376
2022/06/28 04:31:00.000,n,144,3.6,2.16,7.2,11.3,60.6,1024.22,0,0,0,0,0.030479
2022/06/28 04:32:00.000,n,143,2.52,2.52,2.88,11.2,60.5,1024.22,0,0,0,0,0.029602
2022/06/28 04:33:00.000,n,213,0.72,0.36,1.44,11.2,60.8,1024.32,0,0,0,0,0.029602
2022/06/28 04:34:00.000,n,147,3.96,3.6,4.32,11.2,60.9,1024.22,0,0,0,0,0.026131
2022/06/28 04:35:00.005,n,142,3.24,2.88,3.24,11.1,60.9,1024.32,0,0,0,0,0.027008
2022/06/28 04:36:00.003,n,143,2.88,2.88,3.24,11.1,60.8,1024.32,0,0,0,0,0.024376
2022/06/28 04:37:00.001,n,166,7.92,5.4,10.08,11.1,61.5,1024.32,0,0,0,0,0.027008
2022/06/28 04:38:00.000,n,147,2.52,1.44,3.24,11,61.5,1024.32,0,0,0,0,0.029602
2022/06/28 04:39:00.012,n,158,6.12,2.88,7.92,11,61.7,1024.32,0,0,0,0,0.026131
2022/06/28 04:40:00.000,n,142,3.6,2.88,3.96,11,61.9,1024.32,0,0,0,0,0.026131
2022/06/28 04:41:00.000,n,158,9.72,8.64,10.440002,10.9,62,1024.42,0,0,0,0,0.024376
2022/06/28 04:42:00.003,n,199,1.44,0.36,3.24,10.9,61.9,1024.32,0,0,0,0,0.027008
2022/06/28 04:43:00.001,n,145,3.6,0.72,7.92,10.9,62.5,1024.32,0,0,0,0,0.025253
2022/06/28 04:44:00.000,n,176,5.04,2.88,6.48,10.9,62.6,1024.32,0,0,0,0,0.026131
2022/06/28 04:45:00.000,n,84,1.8,1.08,3.24,10.8,62.3,1024.32,0,0,0,0,0.024376
2022/06/28 04:46:00.007,n,145,0.72,0.36,1.44,10.8,62.1,1024.32,0,0,0,0,0.024376
2022/06/28 04:47:00.005,n,161,6.12,2.16,7.2,10.8,61.9,1024.32,0,0,0,0,0.027008
2022/06/28 04:48:00.002,n,167,2.52,1.8,3.96,10.8,61.5,1024.32,0,0,0,0,0.025253
2022/06/28 04:49:00.000,n,187,1.8,1.08,4.68,10.8,61.7,1024.32,0,0,0,0,0.023537
2022/06/28 04:50:00.000,n,291,3.6,3.24,4.32,10.8,61.8,1024.32,0,0,0,0,0.023537
2022/06/28 04:51:00.000,n,264,3.96,3.6,4.68,10.8,61.7,1024.32,0,0,0,0,0.018311
2022/06/28 04:52:00.000,n,226,1.8,1.08,2.16,10.8,61.7,1024.32,0,0,0,0,0.023537
2022/06/28 04:53:00.006,n,208,3.96,2.52,6.84,10.8,62.1,1024.32,0,0,0,0,0.031395